Regional Weather Roundup
Issued by NWS

Home | Current Version | Previous Version | Graphics & Text | Print | Product List | Glossary On
Versions: 1 2 3 4 5 6 7 8 9 10 11 12 13 14 15 16 17 18 19 20 21 22 23 24 25 26 27 28 29 30 31 32 33 34 35 36 37 38 39 40 41 42 43 44 45 46 47 48 49 50
000
ASUS43 KDTX 221801
RWRMI
MICHIGAN HOURLY REGIONAL WEATHER ROUNDUP
NATIONAL WEATHER SERVICE DETROIT/PONTIAC MI
200 PM EDT FRI SEP 22 2017

NOTE: "FAIR" INDICATES FEW OR NO CLOUDS BELOW 12,000 FEET WITH NO
SIGNIFICANT WEATHER AND/OR OBSTRUCTION TO VISIBILITY.

MIZ047>049-052>055-059>063-066>070-074>076-081>083-221900-
SOUTHEAST LOWER MICHIGAN

CITY           SKY/WX    TMP DP  RH WIND       PRES   REMARKS
ADRIAN         SUNNY     89  67  47 E6        30.10F HX  92
6HR MIN TEMP:  67; 6HR MAX TEMP:  90;

ALMA           MOSUNNY   92  61  35 S12G17    30.08F HX  91
ANN ARBOR      SUNNY     90  68  48 E6        30.10F HX  94
BAD AXE        SUNNY     88  67  49 S3        30.11F HX  90
6HR MIN TEMP:  64; 6HR MAX TEMP:  88;

CARO           SUNNY     89  68  49 CALM      30.09F HX  93
DETROIT CITY   SUNNY     85  67  54 SE7       30.11F
6HR MIN TEMP:  70; 6HR MAX TEMP:  86;

DETROIT        MOSUNNY   86  70  58 SW3       30.11F HX  90
6HR MIN TEMP:  68; 6HR MAX TEMP:  87;

FLINT          MOSUNNY   90  68  48 CALM      30.10F HX  94
6HR MIN TEMP:  65; 6HR MAX TEMP:  90;

GROSSE ILE     SUNNY     78  68  70 S7        30.11S
6HR MIN TEMP:  68; 6HR MAX TEMP:  78;

HILLSDALE      PTSUNNY   90  66  45 NW3       30.11F HX  92
HOWELL         PTSUNNY   89  68  49 E7        30.12S HX  93
6HR MIN TEMP:  66; 6HR MAX TEMP:  89;


CITY           SKY/WX    TMP DP  RH WIND       PRES   REMARKS
JACKSON        SUNNY     90  63  40 VRB3      30.10F HX  91
6HR MIN TEMP:  69; 6HR MAX TEMP:  91;

LAMBERTVILLE   SUNNY     87  69  56 E6        30.10F HX  91
6HR MIN TEMP:  67; 6HR MAX TEMP:  87;

LANSING        MOSUNNY   88  66  48 VRB3      30.10F HX  90
6HR MIN TEMP:  67; 6HR MAX TEMP:  90;

LAPEER         FAIR      88  65  45 E3        30.11F HX  90
6HR MIN TEMP:  62; 6HR MAX TEMP:  89;

MASON          MOSUNNY   90  65  44 CALM      30.11F HX  91
MONROE         SUNNY     85  66  52 E3        30.11F
6HR MIN TEMP:  66; 6HR MAX TEMP:  85;

MT. CLEMENS    SUNNY     83  66  56 SE8       30.11F
6HR MIN TEMP:  68; 6HR MAX TEMP:  83;

PONTIAC        MOSUNNY   88  67  49 CALM      30.10F HX  91
6HR MIN TEMP:  67; 6HR MAX TEMP:  88;

PORT HOPE        N/A     76  69  79 E9        30.08F
6HR MIN TEMP:  66; 6HR MAX TEMP:  82;

PORT HURON     SUNNY     88  68  51 CALM      30.11F HX  91
TRI CITIES     MOSUNNY   90  71  53 SW8G16    30.09F HX  96
6HR MIN TEMP:  65; 6HR MAX TEMP:  91;

MIDLAND        FAIR      91  69  47 SE6       30.07F HX  95
6HR MIN TEMP:  62; 6HR MAX TEMP:  91;

TROY           SUNNY     87  67  49 E3        30.12F HX  90
SAGINAW HB     SUNNY     88  68  51 S6        30.08F HX  91
$$
MIZ043>046-050>051-056>058-064>065-071>073-077>080-221900-
SOUTHWEST LOWER MICHIGAN

CITY           SKY/WX    TMP DP  RH WIND       PRES   REMARKS
BATTLE CREEK   PTSUNNY   89  67  47 W6        30.11F HX  92
6HR MIN TEMP:  66; 6HR MAX TEMP:  94;

BENTON HARBOR  SUNNY     90  65  43 W8        30.08F HX  92
BIG RAPIDS     SUNNY     90  63  40 W3        30.08S HX  90
6HR MIN TEMP:  61; 6HR MAX TEMP:  91;

COLDWATER      SUNNY     90  63  39 CALM      30.11F HX  91
6HR MIN TEMP:  67; 6HR MAX TEMP:  90;

FREMONT        FAIR      91  65  41 S10       30.07S HX  93
HOLLAND        SUNNY     90  65  43 SW7       30.09F HX  92
6HR MIN TEMP:  68; 6HR MAX TEMP:  91;

GRAND RAPIDS   MOSUNNY   92  66  42 VRB6      30.08F HX  94
6HR MIN TEMP:  68; 6HR MAX TEMP:  94;

IONIA          FAIR      92  62  37 S6        30.08F HX  92
6HR MIN TEMP:  64; 6HR MAX TEMP:  92;

KALAMAZOO      MOSUNNY   89  63  41 CALM      30.10F HX  90
6HR MIN TEMP:  66; 6HR MAX TEMP:  91;

LUDINGTON      SUNNY     86  68  55 SW10      30.05F
6HR MIN TEMP:  65; 6HR MAX TEMP:  86;

MARSHALL       SUNNY     91  67  44 W5        30.10F HX  94
6HR MIN TEMP:  64; 6HR MAX TEMP:  91;

MOUNT PLEASANT MOSUNNY   93  64  37 SW6       30.07F HX  95
MUSKEGON       MOSUNNY   89  66  46 SW10      30.08F HX  91
6HR MIN TEMP:  69; 6HR MAX TEMP:  89;

SOUTH HAVEN    SUNNY     90  62  39 W5        30.08F HX  90
$$
MIZ016>042-221900-
NORTHERN LOWER MICHIGAN

CITY           SKY/WX    TMP DP  RH WIND       PRES   REMARKS
ALPENA         SUNNY     90  73  57 S10       30.05F HX  98
6HR MIN TEMP:  62; 6HR MAX TEMP:  90;

BEAVER ISLAND  SUNNY     85  69  58 SW10G22   30.02R
6HR MIN TEMP:  70; 6HR MAX TEMP:  85;

BELLAIRE       SUNNY     90  65  43 S7        30.03F HX  91
6HR MIN TEMP:  61; 6HR MAX TEMP:  90;

CADILLAC       SUNNY     92  62  36 SW8       30.08F HX  92
CHARLEVOIX     SUNNY     89  67  48 S10       30.05S HX  91
FRANKFORT      SUNNY     86  69  56 SW5       30.05R HX  90
GAYLORD        SUNNY     87  66  49 SW13      30.07F
6HR MIN TEMP:  66; 6HR MAX TEMP:  87;

GRAYLING       SUNNY     89  66  46 S6        30.08F HX  92
6HR MIN TEMP:  60; 6HR MAX TEMP:  89;

HARBOR SPRINGS SUNNY     88  66  48 SW6       30.02S HX  90
HOUGHTON LAKE  SUNNY     90  67  46 SW8       30.09F HX  93
6HR MIN TEMP:  62; 6HR MAX TEMP:  90;

MANISTEE       SUNNY     90  69  50 SW8       30.04S HX  94
OSCODA         SUNNY     89  69  51 SW9G21    30.06F HX  93
6HR MIN TEMP:  66; 6HR MAX TEMP:  89;

PELLSTON       SUNNY     90  66  45 SW8G17    30.02F HX  92
6HR MIN TEMP:  59; 6HR MAX TEMP:  91;

ROGERS CITY    MOSUNNY   89  71  54 S10       30.04F HX  95
TRAVERSE CITY  MOSUNNY   92  65  40 SW8G20    30.01F HX  94
6HR MIN TEMP:  71; 6HR MAX TEMP:  93;

$$
MIZ007>008-015-221900-
EASTERN UPPER MICHIGAN

CITY           SKY/WX    TMP DP  RH WIND       PRES   REMARKS
KINROSS        SUNNY     85  72  65 SW9       30.02F HX  91
6HR MIN TEMP:  64; 6HR MAX TEMP:  85;

MACKINAC ISLAN SUNNY     82  67  59 W5        30.02S
6HR MIN TEMP:  69; 6HR MAX TEMP:  82;

NEWBERRY       CLOUDY    80  72  75 S15G21    30.00R
6HR MIN TEMP:  65; 6HR MAX TEMP:  81;

S. S. MARIE    SUNNY     83  72  69 SE6       30.00F
6HR MIN TEMP:  64; 6HR MAX TEMP:  83;

MUNISING         N/A     84  73  69 W10G17    29.97R HX  90
6HR MIN TEMP:  67; 6HR MAX TEMP:  86;

$$
MIZ004>006-011>014-085-221900-
CENTRAL UPPER MICHIGAN

CITY           SKY/WX    TMP DP  RH WIND       PRES   REMARKS
MANISTIQUE     MOSUNNY   73  67  81 S8G17     30.01S
6HR MIN TEMP:  66; 6HR MAX TEMP:  74;

ESCANABA       CLOUDY    78  70  76 S8        29.98S
6HR MIN TEMP:  59; 6HR MAX TEMP:  78;

MENOMINEE      CLOUDY    86  72  62 SW10      29.98F HX  92
6HR MIN TEMP:  62; 6HR MAX TEMP:  86;

SAWYER-GWINN   CLOUDY    81  70  69 N25       30.00R
$$
MIZ001>003-009>011-084-221900-
WESTERN UPPER MICHIGAN

CITY           SKY/WX    TMP DP  RH WIND       PRES   REMARKS
IRON MOUNTAIN  CLOUDY    81  69  67 S3        30.00R
6HR MIN TEMP:  64; 6HR MAX TEMP:  84;

HOUGHTON       LGT RAIN  66  63  90 S12       29.94R
6HR MIN TEMP:  65; 6HR MAX TEMP:  73; 6HR PCP:  0.41;

COPPER HARBOR    N/A     68  65  90 VRB7      29.91F
6HR MIN TEMP:  63; 6HR MAX TEMP:  77; 6HR PCP:  0.14;

IRONWOOD       CLOUDY    65  62  90 S16G23    29.94R
6HR MIN TEMP:  63; 6HR MAX TEMP:  71;

$$

ABBREVIATIONS USED IN REMARKS
   TC - TEMPERATURE IN CELSIUS
  WCI - WIND CHILL INDEX
   HX - HEAT INDEX
  VSB - VISIBILITY





USA.gov is the U.S. government's official web portal to all federal, state and local government web resources and services.